Regional Weather Roundup
Issued by NWS

Home | Current Version | Previous Version | Text Only | Print | Product List | Glossary Off
Versions: 1 2 3 4 5 6 7 8 9 10 11 12 13 14 15 16 17 18 19 20 21 22 23 24 25 26 27 28 29 30 31 32 33 34 35 36 37 38 39 40 41 42 43 44 45 46 47 48 49 50

000
ASUS45 KABQ 060601
RWRNM
WEATHER ROUNDUP FOR NEW MEXICO
NATIONAL WEATHER SERVICE ALBUQUERQUE NM
1100 PM MST THU MAR 05 2015

NOTE: "FAIR" MEANS FEW OR NO CLOUDS BELOW 12,000 FEET AGL WITH NO
       SIGNIFICANT WEATHER OR OBSTRUCTIONS TO VISION.

      THIS PRODUCT IS RELEASED AS TWO VERSIONS.  ONE VERSION NEAR
      THE TOP OF THE HOUR CONTAINING PRELIMINARY DATA FROM ALBUQUERQUE
      AND OTHER STATIONS.  A FINAL VERSION WITH ADDITIONAL DATA IS
      ISSUED ABOUT 10 MINUTES AFTER THE HOUR.

NMZ501-503-504-510>518-060700-
NORTHWEST PLATEAU/NORTHCENTRAL MOUNTAINS

CITY           SKY/WX    TMP DP  RH WIND       PRES   REMARKS
FARMINGTON     CLEAR     31  19  61 CALM      30.38S
6HR MIN TEMP:  30; 6HR MAX TEMP:  45;

SANTA FE       CLEAR     29  14  53 N10       30.36R WCI  20
6HR MIN TEMP:  28; 6HR MAX TEMP:  48;

TAOS           CLEAR     21  12  68 CALM      30.39R
ANGEL FIRE     FAIR      12   3  67 CALM      30.37S

$$
NMZ402-403-502-505>509-060700-
WESTCENTRAL MOUNTAINS/SOUTHWEST MOUNTAINS

CITY           SKY/WX    TMP DP  RH WIND       PRES   REMARKS
GALLUP         CLEAR     23  15  71 NE5       30.41R WCI  17
6HR MIN TEMP:  22; 6HR MAX TEMP:  50;

GRANTS         CLEAR     24  11  59 NW3       30.41S
SILVER CITY    CLEAR     30  18  59 CALM      30.39S

$$
NMZ407-409-411-412-060700-
SOUTHERN DESERTS

CITY           SKY/WX    TMP DP  RH WIND       PRES   REMARKS
DEMING         CLEAR     33  23  66 N6        30.37F WCI  28
6HR MIN TEMP:  33; 6HR MAX TEMP:  52;

ALAMOGORDO     CLEAR     32  25  74 N6        30.39F WCI  26
T OR C         CLEAR     36  17  46 W3        30.37R
6HR MIN TEMP:  36; 6HR MAX TEMP:  53;


$$
NMZ519>523-060700-
CENTRAL VALLEYS/CENTRAL HIGHLANDS

CITY           SKY/WX    TMP DP  RH WIND       PRES   REMARKS
ALBUQUERQUE    CLEAR     39  11  31 CALM      30.38S
6HR MIN TEMP:  39; 6HR MAX TEMP:  53;

DOUBLE EAGLE   CLEAR     33   8  34 NW9       30.38F WCI  25
MORIARTY ARPT  FAIR      27  11  51 NW5       30.37S WCI  22
6HR MIN TEMP:  24; 6HR MAX TEMP:  48;

CLINES CORNERS CLEAR     29  12  49 NW14      30.32R WCI  18
6HR MIN TEMP:  28; 6HR MAX TEMP:  44;

BELEN          FAIR      31  13  47 N3        30.38S
6HR MIN TEMP:  29; 6HR MAX TEMP:  51;

SOCORRO          N/A     33  18  54 SW5       30.37F WCI  29
6HR MIN TEMP:  33; 6HR MAX TEMP:  53;


$$
NMZ524>526-539-540-060700-
SOUTHCENTRAL MOUNTAINS

CITY           SKY/WX    TMP DP  RH WIND       PRES   REMARKS
RUIDOSO        NOT AVBL

$$
NMZ527>531-060700-
NORTHEAST HIGHLANDS/NORTHEAST PLAINS

CITY           SKY/WX    TMP DP  RH WIND       PRES   REMARKS
LAS VEGAS      CLEAR     33  17  51 N5        30.31F WCI  29
6HR MIN TEMP:  28; 6HR MAX TEMP:  41;

RATON          CLEAR     24  21  88 NE7       30.29F WCI  16
6HR MIN TEMP:  24; 6HR MAX TEMP:  38;

CLAYTON        CLEAR     30  22  72 SW12      30.29F WCI  20
6HR MIN TEMP:  29; 6HR MAX TEMP:  40;


$$
NMZ532>537-060700-
EASTCENTRAL PLAINS

CITY           SKY/WX    TMP DP  RH WIND       PRES   REMARKS
TUCUMCARI      CLEAR     29  22  75 SW8       30.33S WCI  21
6HR MIN TEMP:  29; 6HR MAX TEMP:  44;

CANNON AFB     NOT AVBL
CLOVIS AIRPORT CLEAR     25  19  80 SW8       30.37R WCI  16

$$
NMZ028-029-538-060700-
SOUTHEAST PLAINS

CITY           SKY/WX    TMP DP  RH WIND       PRES   REMARKS
ROSWELL        CLEAR     27  23  85 S8        30.39F WCI  19
6HR MIN TEMP:  26; 6HR MAX TEMP:  43;

ARTESIA        CLEAR     27  28 100 SE9       30.41F WCI  17
CARLSBAD       CLEAR     29  25  85 S10       30.41F WCI  20
6HR MIN TEMP:  29; 6HR MAX TEMP:  40;

HOBBS          CLEAR     27  27 100 S5        30.43F WCI  21


$$



USA.gov is the U.S. government's official web portal to all federal, state and local government web resources and services.